Home > Weather > Zug > Past weeks

Flag for Switzerland Weather for the Past 2 Weeks in Zug, Zug, Switzerland

Now
49 °F

Cool.


Feels Like: 41 °F
Forecast: 39 / 51 °F
Wind: 25 mph from Southwest

Location: Zuerich-Fluntern

Current Time: Feb 8, 2016 at 8:10:47 PM

Latest Report: Feb 8, 2016 at 7:00 PM


Visibility: N/A

Pressure: 29.79 "Hg

Humidity: 68%

Dew point: 39 °F

Location of ZugLocation

Historic Weather in Zug — Graph

°F

Zug Temperature Yesterday

Maximum temperature yesterday: 46 °F (at 1:00 PM)
Minimum temperature yesterday: 39 °F (at 7:00 PM)
Average temperature yesterday: 41 °F

High & Low Weather Summary for the Past Weeks

 TemperatureHumidityPressure
High56 °F (Feb 1, 1:00 PM)97% (Jan 30, 5:00 AM)30.60 "Hg (Jan 30, 5:00 AM)
Low33 °F (Feb 3, 8:00 PM)51% (Jan 25, 2:00 PM)29.65 "Hg (Feb 7, 10:00 AM)
Average43 °F77%30.24 "Hg
* Reported Jan 24 6:00 PM — Feb 8 6:00 PM, Zug, Weather by CustomWeather, © 2016

Note: Actual official high and low records may vary slightly from our data, if they occured in-between our weather recording intervals... More about our weather records

Advertising

Zug Weather History for the Previous 24 Hours

 ConditionsComfort  
Time TempWeatherWind HumidityBarometerVisibility
6:00 PM
Mon, Feb 8
49 °FCool.28 mph67%29.77 "HgN/A
5:00 PM50 °FCool.20 mph64%29.71 "HgN/A
4:00 PM53 °FCool.16 mph51%29.67 "HgN/A
3:00 PM51 °FCool.14 mph55%29.70 "HgN/A
2:00 PM49 °FCool.20 mph58%29.72 "HgN/A
1:00 PM50 °FOvercast.21 mph56%29.73 "HgN/A
12:00 PM45 °FCool.7 mph64%29.77 "HgN/A
11:00 AM43 °FQuite cool.9 mph67%29.80 "HgN/A
10:00 AM41 °FQuite cool.8 mph68%29.83 "HgN/A
9:00 AM40 °FChilly.7 mph71%29.88 "HgN/A
8:00 AM39 °FChilly.7 mph79%29.88 "HgN/A
7:00 AM37 °FChilly.9 mph92%29.89 "HgN/A
6:00 AM38 °FChilly.9 mph85%29.89 "HgN/A
5:00 AM38 °FChilly.9 mph81%29.91 "HgN/A
3:00 AM37 °FChilly.6 mph87%29.94 "HgN/A
2:00 AM36 °FChilly.3 mph91%29.96 "HgN/A
12:00 AM39 °FChilly.8 mph78%29.98 "HgN/A
11:00 PM
Sun, Feb 7
40 °FQuite cool.10 mph76%29.98 "HgN/A
10:00 PM40 °FChilly.9 mph79%29.98 "HgN/A
9:00 PM40 °FQuite cool.9 mph79%29.96 "HgN/A
8:00 PM40 °FChilly.7 mph83%29.96 "HgN/A
Weather by CustomWeather, © 2016

See weather overviewHow to use our weather pages